{"data":{"norad_id":52614,"intl_designator":"2022-052S","name":"STARLINK-3982","alt_names":[],"object_type":"PAYLOAD","status":"ACTIVE","operator":null,"country":"US","launch_date":"2022-05-14","launch_site_code":"AFETR","launch_vehicle":null,"mission":null,"orbit_class":"UNKNOWN","rcs_meters":null,"size_class":null,"mass_kg":null,"dimensions":null,"purposes":["comms"],"wikipedia_slug":null,"has_3d_model":false,"image_url":null,"decayed_at":null,"tle_current":{"epoch":"2026-05-24T22:10:13.074816Z","epoch_age_seconds":81662,"freshness":"FRESH","line1":"1 52614U 22052S   26144.92376244  .00053876  00000+0  86689-3 0  9991","line2":"2 52614  53.2075 225.4060 0001103 170.4651 189.6382 15.52478294223371","mean_motion":15.52478294,"eccentricity":0.0001103,"inclination_deg":53.2075,"raan_deg":225.406,"arg_perigee_deg":170.4651,"mean_anomaly_deg":189.6382,"bstar":0.00086689,"rev_number":22337,"period_min":92.754920024666,"perigee_km":408.7441623461,"apogee_km":410.24151348835,"semimajor_km":6787.6298379172,"source":"CELESTRAK","updated_at":"2026-05-25T13:38:17.200069Z"}}}